Swansboro, NC

2:37 AM EST on December 17, 2017 (GMT -0500)
Bogue McAlf

Weather History for KNJM - May, 2013

Change the Weather History Date:

Sunday, May 12, 2013

  Actual Average (KNKT) Record (KNKT)
Temperature  
Mean Temperature 73 °F -  
Max Temperature 80 °F 76 °F 89 °F (2005)
Min Temperature 64 °F 55 °F 45 °F (1997)
Cooling Degree Days 8    
Growing Degree Days 23 (Base 50)    
Moisture  
Dew Point 58 °F    
Average Humidity 62    
Maximum Humidity 90    
Minimum Humidity 31    
Precipitation  
Precipitation 0.00 in - - ()
Sea Level Pressure  
Sea Level Pressure 29.87 in    
Wind  
Wind Speed 8 mph (WNW)    
Max Wind Speed 12 mph    
Max Gust Speed 20 mph    
Visibility 9 miles    
Events      
Averages and records for this station are not official NWS values.
T = Trace of Precipitation, MM = Missing Value Source: NWS Daily Summary

Daily Weather History Graph

Daily Weather History Graph

Search for Another Location

Airport or City:

Trip Planner

Search our weather history database for the weather conditions in past years. The results will help you decide how hot, cold, wet, or windy it might be!

Date:

Astronomy

May. 12, 2013 Rise Set
Actual Time 6:07 AM EDT 8:02 PM EDT
Civil Twilight 5:39 AM EDT 8:29 PM EDT
Nautical Twilight 5:06 AM EDT 9:03 PM EDT
Astronomical Twilight 4:30 AM EDT 9:39 PM EDT
Moon 8:02 AM EDT (5/12) 10:26 PM EDT (5/12)
Length of Visible Light 14h 50m
Length of Day
13h 54m
Waxing Crescent, 6% of the Moon is Illuminated
May 12
Waxing Crescent
May 18
First Quarter
May 25
Full
May 31
Last Quarter
Jun 8
New

Hourly Weather History & Observations

Time (EDT) Temp. Dew Point Humidity Pressure Visibility Wind Dir Wind Speed Gust Speed Precip Events Conditions
12:57 AM 69.1 °F 64.0 °F 84% 29.86 in 8.0 mi WSW 8.1 mph - N/A   Clear
1:57 AM 69.1 °F 64.0 °F 84% 29.86 in 8.0 mi WSW 8.1 mph - N/A   Clear
2:57 AM 69.1 °F 64.9 °F 87% 29.85 in 7.0 mi SW 11.5 mph - N/A   Clear
3:57 AM 69.1 °F 64.9 °F 87% 29.83 in 6.0 mi WSW 5.8 mph - N/A   Mostly Cloudy
4:57 AM 68.0 °F 64.9 °F 90% 29.81 in 5.0 mi WSW 5.8 mph - 0.00 in   Overcast
5:57 AM 70.0 °F 64.9 °F 84% 29.82 in 10.0 mi West 6.9 mph - N/A   Overcast
6:57 AM 70.0 °F 64.0 °F 81% 29.83 in 10.0 mi NW 4.6 mph - N/A   Overcast
7:57 AM 70.0 °F 64.9 °F 84% 29.84 in 10.0 mi WNW 5.8 mph - N/A   Mostly Cloudy
8:57 AM 72.0 °F 63.0 °F 73% 29.86 in 10.0 mi NW 11.5 mph - N/A   Partly Cloudy
9:57 AM 73.0 °F 62.1 °F 68% 29.86 in 10.0 mi NW 9.2 mph - N/A   Mostly Cloudy
10:45 AM 73.4 °F 60.8 °F 65% 29.85 in 10.0 mi Variable 6.9 mph - N/A   Mostly Cloudy
10:57 AM 73.9 °F 61.0 °F 64% 29.87 in 10.0 mi Variable 4.6 mph - N/A   Overcast
11:12 AM 75.2 °F 62.6 °F 65% 29.86 in 10.0 mi NNW 8.1 mph - N/A   Overcast
11:20 AM 75.2 °F 60.8 °F 61% 29.86 in 10.0 mi West 6.9 mph - N/A   Mostly Cloudy
11:29 AM 75.2 °F 60.8 °F 61% 29.86 in 10.0 mi NW 8.1 mph - N/A   Mostly Cloudy
11:57 AM 75.9 °F 60.1 °F 58% 29.87 in 10.0 mi NW 6.9 mph - N/A   Mostly Cloudy
12:57 PM 75.0 °F 57.9 °F 55% 29.86 in 10.0 mi NW 8.1 mph - N/A   Mostly Cloudy
1:57 PM 73.9 °F 61.0 °F 64% 29.86 in 10.0 mi SSW 9.2 mph - N/A   Mostly Cloudy
2:57 PM 77.0 °F 63.0 °F 62% 29.86 in 10.0 mi SW 10.4 mph - N/A   Scattered Clouds
3:57 PM 80.1 °F 48.0 °F 32% 29.86 in 10.0 mi NW 10.4 mph 19.6 mph N/A   Partly Cloudy
4:57 PM 79.0 °F 46.0 °F 31% 29.86 in 10.0 mi NW 10.4 mph 17.3 mph N/A   Partly Cloudy
5:57 PM 78.1 °F 46.0 °F 32% 29.87 in 10.0 mi NW 6.9 mph - N/A   Clear
6:57 PM 77.0 °F 46.9 °F 34% 29.88 in 10.0 mi WNW 9.2 mph - N/A   Clear
7:57 PM 73.0 °F 48.0 °F 41% 29.91 in 10.0 mi NNW 4.6 mph - N/A   Scattered Clouds
8:57 PM 70.0 °F 48.0 °F 46% 29.95 in 10.0 mi NNW 4.6 mph - N/A   Clear
9:57 PM 66.9 °F 48.9 °F 52% 29.98 in 10.0 mi North 4.6 mph - N/A   Scattered Clouds
10:57 PM 66.9 °F 45.0 °F 45% 30.00 in 10.0 mi North 6.9 mph - N/A   Scattered Clouds
11:57 PM 64.9 °F 45.0 °F 48% 30.00 in 10.0 mi North 8.1 mph - N/A   Mostly Cloudy